Content
SEND FEEDBACK

Daily
Averages
Monthly
Summary
Canada

BEACONSFIELD, QUEBEC


Home > North America > Canada > Quebec
Elevation: 118 feet     Latitude: 45 28N     Longitude: 073 45W

WEATHER
 
SELECT A DAY
Number of Records: 201,481;   Date Range: 1/1/95 - 10/22/14
 
SHARE

PRINT THIS DATA

[ ← Previous Day ]
WEATHER ALMANAC - JANUARY 1, 2013
[ Next Day → ]
[ °C ]   °F
Weather ElementAverageHighLow
Temperature12.3 °F28.4 °F (12:42 am)3.2 °F (10:00 pm)
Dewpoint2 °F23 °F (1:00 am)-4 °F (10:00 pm)
Humidity65.3 %80 % (1:00 am)46 % (1:00 pm)
Barometer26.80 in29.98 in (8:00 pm) (7:00 pm)
Wind Speed14.6 mph24.2 mph (12:42 am)
Wind Gust35.7 mph (12:42 am)
Weather ElementAverage
Visibility14.3 mi
Wind DirectionW (268.6 °)

Weather ElementTotal
Precipitation---
Heating Degree Days49.2 (Base 65)
Averaged from 29 records on January 1, 2013
WEATHER CONDITIONS BREAKOUT
WIND DIRECTION BREAKOUT
WEATHER BY HOUR - JANUARY 1, 2013
[ °C ]   °F
Local TimeTemperatureDewpointHumidityBarometerVisibilityWind DirectionWind SpeedGust SpeedPrecipitationEventsConditions
12:42 AM28.4 °F0.0 °F10.0 miWest (270°)24.2 mph35.7 mphSnowLow Drifting Snow
1:00 AM28.4 °F23.0 °F80 %29.65 in10.0 miWest (270°)21.9 mphSnowLow Drifting Snow
1:45 AM28.4 °F0.0 °F10.0 miWNW (290°)19.6 mph26.5 mphSnowLight Snow
2:00 AM26.6 °F21.2 °F80 %29.69 in12.0 miWNW (300°)17.3 mph24.2 mphSnowLight Snow
3:00 AM21.2 °F10.4 °F63 %29.73 in15.0 miWest (280°)18.4 mph25.3 mphSnowLow Drifting Snow
4:00 AM17.6 °F8.6 °F68 %29.76 in12.0 miWNW (290°)21.9 mph29.9 mphSnowLow Drifting Snow
5:00 AM14.0 °F5.0 °F67 %29.81 in15.0 miWest (280°)20.7 mph29.9 mphSnowLow Drifting Snow
6:00 AM12.2 °F1.4 °F62 %29.86 in15.0 miWNW (300°)18.4 mph27.6 mphSnowLow Drifting Snow
7:00 AM10.0 °F1.0 °F54 %29.90 in15.0 miWest (280°)15.0 mphPartly Cloudy
7:00 AM10.4 °F1.4 °F67 %29.90 in15.0 miWest (280°)12.7 mphPartly Cloudy
8:00 AM8.6 °F-0.4 °F67 %29.92 in15.0 miWest (260°)8.1 mphPartly Cloudy
9:00 AM8.6 °F1.4 °F73 %29.92 in15.0 miWest (270°)12.7 mphPartly Cloudy
10:00 AM8.6 °F-0.4 °F67 %29.94 in15.0 miWest (280°)11.5 mph19.6 mphPartly Cloudy
11:00 AM10.4 °F-0.4 °F62 %29.93 in15.0 miWest (280°)13.8 mph20.7 mphPartly Cloudy
12:00 PM10.4 °F1.4 °F67 %29.93 in15.0 miWest (270°)16.1 mphPartly Cloudy
1:00 PM12.0 °F1.0 °F46 %29.91 in15.0 miWest (260°)16.1 mphScattered Clouds
1:00 PM12.2 °F1.4 °F62 %29.91 in15.0 miWSW (250°)16.1 mphPartly Cloudy
2:00 PM12.2 °F1.4 °F62 %29.91 in15.0 miWest (260°)17.3 mphPartly Cloudy
3:00 PM12.2 °F-0.4 °F57 %29.92 in15.0 miWest (260°)18.4 mph26.5 mphPartly Cloudy
4:00 PM10.4 °F-0.4 °F62 %29.91 in15.0 miWest (270°)13.8 mphPartly Cloudy
5:00 PM8.6 °F-0.4 °F67 %29.94 in15.0 miWest (270°)11.5 mphPartly Cloudy
6:00 PM8.6 °F-0.4 °F67 %29.95 in15.0 miWSW (250°)15.0 mphPartly Cloudy
7:00 PM6.8 °F-2.2 °F67 %29.97 in15.0 miWSW (250°)12.7 mphPartly Cloudy
7:00 PM7.0 °F-2.0 °F54 %29.97 in15.0 miWSW (250°)13.8 mphScattered Clouds
8:00 PM6.8 °F-2.2 °F67 %29.98 in15.0 miWSW (250°)9.2 mphClear
9:00 PM5.0 °F-2.2 °F72 %29.96 in15.0 miWSW (240°)9.2 mphScattered Clouds
10:00 PM3.2 °F-4.0 °F72 %29.96 in15.0 miWest (270°)4.6 mphMostly Cloudy
10:42 PM3.2 °F0.0 °F15.0 miWSW (250°)5.8 mphSnowLight Snow Showers
11:00 PM5.0 °F-4.0 °F66 %29.96 in15.0 miWest (260°)6.9 mphOvercast
Hourly data recorded from CYUL, located miles away from Beaconsfield, Quebec







STORIES FROM OUR PARTNERS